Location: Pasarilla del Rebollar
(40.6790°N, 5.0062°W)
Time: 10:55:48
(UTC+00:00)

Cosmos 1937 Rocket - Pass Details

Date: 22 April 2026
Orbit: 742 x 775 km, 74.0° (Epoch: 15 May)

Event Time Altitude Azimuth Distance (km) Brightness Sun altitude
Rises 04:09:29 0° 341° (NNW) 3,225 6.9 -15.0°
Reaches altitude 10° 04:11:53 10° 343° (NNW) 2,290 6.1 -14.6°
Maximum altitude 04:17:05 80° 70° (ENE) 768 3.6 -13.7°
Drops below altitude 10° 04:22:12 10° 158° (SSE) 2,255 5.9 -12.9°
Sets 04:24:32 0° 159° (SSE) 3,172 6.6 -12.5°
